Regional Weather Roundup
Issued by NWS

Home | Current Version | Previous Version | Graphics & Text | Print | Product List | Glossary On
Versions: 1 2 3 4 5 6 7 8 9 10 11 12 13 14 15 16 17 18 19 20 21 22 23 24 25 26 27 28 29 30 31 32 33 34 35 36 37 38 39 40 41 42 43 44 45 46 47 48 49 50
000
ASUS43 KMKX 251121
RWRWI

WISCONSIN REGIONAL WEATHER ROUNDUP
NATIONAL WEATHER SERVICE MILWAUKEE/SULLIVAN WI
600 AM CDT FRI MAY 25 2018

NOTE: "FAIR" INDICATES FEW OR NO CLOUDS BELOW 12,000 FEET WITH NO
SIGNIFICANT WEATHER AND/OR OBSTRUCTIONS TO VISIBILITY.

WIZ001-002-006>008-014>016-023>028-251200-
NORTHWEST WISCONSIN

CITY           SKY/WX    TMP DP  RH WIND       PRES   REMARKS
SUPERIOR ARPT  FAIR      53  53 100 SW5       29.76S
ASHLAND        FAIR      71  61  70 SW17G24   29.77R
HAYWARD        LGT RAIN  67  61  81 SW13      29.83S
SIREN          MOCLDY    67  58  72 SW5       29.81R
CUMBERLAND     TSTM      63  57  82 S14       29.87S
RICE LAKE      TSTM      64  61  87 SW9       29.90R
CHETEK         RAIN      64  62  94 SW7       29.89R
LADYSMITH      LGT RAIN  66  62  86 W13       29.88S
EAU CLAIRE     LGT RAIN  65  62  90 W9G17     29.88R
MENOMONIE      LGT RAIN  63  63 100 SE6       29.87F
NEW RICHMOND   LGT RAIN  63  61  93 S13       29.84F
OSCEOLA        FAIR      65  61  89 S12       29.85R
$$

WIZ003>005-009-010-017-018-251200-
NORTH CENTRAL WISCONSIN

CITY           SKY/WX    TMP DP  RH WIND       PRES   REMARKS
MANITOWISH WTR FAIR      63  63 100 S9        29.85R
ARBOR VITAE    FAIR      63  60  88 SW3       29.86R
WOODRUFF       FAIR      63  60  88 SW3       29.86R
RHINELANDER    FAIR      67  60  78 SW7       29.87R
EAGLE RIVER    FAIR      62  61  96 SW3       29.86R
LAND O LAKES   CLOUDY    63  61  94 CALM      29.87R
PHILLIPS       MOCLDY    64  61  91 W6        29.87R
TOMAHAWK       MOCLDY    59  57  91 CALM      29.88R
MEDFORD        FAIR      64  58  81 SW3       29.87S
MERRILL        FAIR      61  59  94 CALM      29.88R
$$

WIZ029-030-035-036-043>047-251200-
CENTRAL WISCONSIN

CITY           SKY/WX    TMP DP  RH WIND       PRES   REMARKS
WAUSAU         FAIR      66  61  84 SW7       29.86R
MOSINEE        MOCLDY    64  63  94 S12       29.88S
MARSHFIELD     FAIR      63  61  93 SW7       29.88S
STEVENS POINT  FAIR      64  63  95 SW5       29.89S
WAUPACA        FAIR      66  64  90 S7        29.88S
WAUTOMA        FAIR      60  58  92 CALM      29.90S
WISC RAPIDS    FAIR      63  61  93 CALM      29.90R
CAMP DOUGLAS   FAIR      63  62  98 CALM      29.89R
$$

WIZ011>013-019>022-031-037>040-048>050-251200-
NORTHEAST WISCONSIN

CITY           SKY/WX    TMP DP  RH WIND       PRES   REMARKS
ANTIGO         FAIR      62  61  96 SW3       29.89R
SHAWANO        FAIR      68  62  79 CALM      29.86S
OCONTO         FAIR      67  60  79 SW3       29.84S
STURGEON BAY   FAIR      60  54  80 S3        29.87F
GREEN BAY      FAIR      67  61  81 S7        29.87F
MANITOWOC      FAIR      61  55  81 S3        29.89F
APPLETON       PTCLDY    66  57  72 SW8       29.87F
CLINTONVILLE   FAIR      66  60  80 SW5       29.87R
OSHKOSH        FAIR      66  59  78 S9        29.89S
$$

WIZ032>034-041-042-053>061-251200-
SOUTHWEST WISCONSIN

CITY           SKY/WX    TMP DP  RH WIND       PRES   REMARKS
LA CROSSE      FAIR      70  65  84 CALM      29.87R
SPARTA         FAIR      59  59 100 CALM      29.90S
VIROQUA        FAIR      68  64  86 S6        29.91S
BOSCOBEL       FAIR      64  62  93 CALM      29.90S FOG
PRAIRIE DU CHI FAIR      67  60  79 E3        29.89S HAZE
PLATTEVILLE    FAIR      66  63  89 S7        29.93S
$$

WIZ056-057-062-063-064-067-068-251200-
SOUTH CENTRAL WISCONSIN

CITY           SKY/WX    TMP DP  RH WIND       PRES   REMARKS
REEDSBURG      FAIR      67  60  78 S3        29.90S
BARABOO/DELLS  FAIR      68  58  71 SW8       29.91S
LONE ROCK      FAIR      65  62  90 MISG      29.91R
MINERAL POINT  FAIR      68  61  77 CALM      29.93S
MADISON        FAIR      66  60  81 S3        29.92S
MIDDLETON      FAIR      64  58  80 CALM      29.93R
WATERTOWN      FAIR      63  59  87 S3        29.92S
MONROE         FAIR      64  57  77 S7        29.93F
JANESVILLE     PTCLDY    64  57  77 VRB5      29.93F
$$

WIZ051-052-058>065-066-070>072-251200-
SOUTHEAST WISCONSIN

CITY           SKY/WX    TMP DP  RH WIND       PRES   REMARKS
MILWAUKEE      FAIR      66  55  67 SW8       29.93S
WAUKESHA       CLEAR     63  52  67 SW5       29.94F
MILWAUKEE/TIMM FAIR      63  50  63 SW3       29.94S
RACINE         FAIR      68  53  58 SW9       29.95S
BURLINGTON     FAIR      61  55  81 SW5       29.94S
KENOSHA        FAIR      67  52  58 SW7       29.94F
FOND DU LAC    FAIR      66  58  75 SW5       29.90F
SHEBOYGAN      FAIR      60  54  80 S6        29.90F
WEST BEND      FAIR      63  52  67 CALM      29.92S
JUNEAU         FAIR      63  57  82 S5        29.93S
$$

LSZ147-162-251200-
LAKE SUPERIOR

STATION/POSITION TIME  TEMP    WIND        PRES    WAVE
                       AIR SEA DIR/SP/G            HT/PER
                 (UTC) (F)     (DEG/KT/KT) (MB)    (FT/S)
W MID LAKE BUOY  1050   43 36  210/  4/  6 1008.0R   1/ 4
DEVILS ISLAND    1100   46     240/  7/  7 1008.2R
SAXON HARBOR     1030   62      CALM  /  1 1007.5S
$$

LMZ867-665-643>646-251200-
LAKE MICHIGAN

STATION/POSITION TIME  TEMP    WIND        PRES    WAVE
                       AIR SEA DIR/SP/G            HT/PER
                 (UTC) (F)     (DEG/KT/KT) (MB)    (FT/S)
N MID LAKE BUOY  1100   44 38  160/ 10/ 12 1011.1
NORTHPORT PIER   1040   60     150/  3/  4 1010.5F
KEWAUNEE LAKESHO 1100   62     240/  4/  6 1010.9
SHEBOYGAN LAKESH 1100   64     190/  7/  8 1012.2F
PORT WASHINGTON  1040   60     200/  4/  5 1013.9F
ATWATER BUOY     1037   58 49  180/  6/  6 1013.3F   0
MILWAUKEE LAKESH 1100   69     230/  9/ 11   N/A
S MID LAKE BUOY  1050   49 39  180/ 10/ 10 1014.3F   0
KENOSHA   LAKESH 1100   70                 1013.5
$$

TC  - TEMPERATURE IN CELSIUS
VSB - VISIBILITY IN STATUTE MILES
WCI - WIND CHILL INDEX
HX  - HEAT INDEX





USA.gov is the U.S. government's official web portal to all federal, state and local government web resources and services.